User: anonymous   Login
Location: Unspecified
(0.0000°N, 0.0000°E)
Time: 23:59:08
(UTC+00:00)
Language:

STARLINK-31889 - Orbit

View from above orbital plane
View from above orbital plane
View from above satellite
View from above satellite

Ground track
Ground track

The orbit is defined by the following mean orbital elements,

1 59847U          26145.46479444 +.00000000 +00000-0 -37076-5 0 00005
2 59847  43.0016 201.1982 0000895 280.3622  79.7129 15.27573735    07
Epoch (UTC): 25 May 2026 11:09:18
Eccentricity: 0.0000895
inclination: 43.0016°
perigee height: 482 km
apogee height: 484 km
right ascension of ascending node: 201.1982°
argument of perigee: 280.3622°
revolutions per day: 15.27573735
mean anomaly at epoch: 79.7129°

The dashed part of the orbit path shows where the satellite is in the earth's shadow,  

DLR